sat.trackr.live / text

‹ back to catalog

STARLINK-36298

NORAD 68517 · 2026-068K

PAYLOAD ACTIVE UNKNOWN

§ Identity

Operator
Country
US
Launch date
2026-03-30
Launch site
AFETR
Launch vehicle
Mass (kg)
RCS (m²)

Purposes: comms

External: N2YO · Heavens-Above · Gunter

§ Orbital elements

Epoch: 2026-09-19T20:00:47.460096Z

Period
93.85 min
Inclination
53.1615°
Eccentricity
0.0000964
Mean motion
15.34404300 rev/d
Perigee alt
462.0 km
Apogee alt
463.3 km
Semi-major
6,840.8 km
B*
4.1826e-4
RAAN
302.9392°
Arg perigee
77.6625°
Mean anomaly
282.4485°
Rev number
2,673

§ Raw data

STARLINK-362981 68517U 26068K   26262.83388264  .00013783  00000+0  41826-3 0  99942 68517  53.1615 302.9392 0000964  77.6625 282.4485 15.34404300 26735

JSON: /api/v1/satellites/68517 · /tle

For live sub-satellite position, see the globe view (requires WebGL).

§ Visibility from observer

Set your observer location to see the next 7 days of passes ≥ 10°. The values pass through the URL so the page stays shareable.

No JS? Fill the form by hand. The geolocation button needs JavaScript.